Location: Norwich
(42.5310°N, 75.5240°W)
Time: 16:20:27
(UTC-04:00)

Envisat - Pass Details

Date: 27 March 2019
Orbit: 764 x 766 km, 98.2° (Epoch: 20 April)

Event Time Altitude Azimuth Distance (km) Brightness Sun altitude
Rises 19:51:32 0° 175° (S) 3,218 6.1 -6.2°
Reaches altitude 10° 19:53:52 10° 178° (S) 2,296 5.4 -6.6°
Maximum altitude 19:58:52 61° 259° (W) 867 3.7 -7.5°
Drops below altitude 10° 20:03:55 10° 340° (NNW) 2,311 5.9 -8.4°
Sets 20:06:16 0° 344° (NNW) 3,242 6.7 -8.9°
